Погода Нижний Тагил

Погода Нижний Тагил : погода сейчас, прогноз погоды и архив. Всё, что Вы хотите узнать о погоде Нижний Тагил!

Хотите узнать прогноз погоды Нижний Тагил? Тогда Вам сюда: Погода Нижний Тагил

Поиск расширенной информации на нашем сайте:

Полезная информация: антигравийная пленка фото здесь

Другие новости

Новости СМИ2

Главная страница сайта

Новости сайта

02.10.2013

Напоминаем, что на нашем новом сайте вы можете получить высокодетализированные прогнозы погоды по пунктам России, СНГ и мира (включающие важные для авиации метеовеличины, такие как направление и скорость ветра, видимость, явления погоды, количество и форма облачности, нижняя и верхняя граница облачности), а также ознакомиться с разнообразными материалами по авиационной метеорологии и подборкой полезных ссылок на эту тему.

Сайт Метеоцентр.Азия посвящён разработке технологий оптимизации авиаметеорологического обслуживания, включая проектирование и перспективное создание нескольких автоматизированных авиаметеорологических систем:
- система выпуска высокодетальных прогностических карт явлений погоды для нижнего воздушного пространства по России и ближнему зарубежью;
- система верификации прогнозов TAF (выпускаемых синоптиками официальных АМСГ РФ и ближнего зарубежья) и AUTOTAF (выпускаемых сайтом Метеоцентр.Азия) - выявление ошибок, онлайн-сопоставление с фактической погодой METAR, автоматическое внесение коррективов в прогнозы при резком отклонении фактической погоды от прогноза, подсчёт оправдываемости прогнозов по элементам и в целом;
- система обработки, анализа и отображения авиаметеорологической информации для применения провайдерами метеорологической информации.

Рекомендуем: Запчасти крайслер пацифика. Защитная шторка против солнца.

Погода Нижний Тагил - сегодня

Время (UTC), дата Ветер
(°,м/с) 
Видим.   Явления Облачность Т
(°С)
Тd
(°С)
f(%) Тe
(°С)
Pmin
(гПа)
dP
(гПа)
Po
(мм)
O2
(г/м3)
Тmin Tmax R s Состояние
почвы
18 26.07.14 270 (З) 20000 м    10/10 600 м 
[Sc]
+8.4 +5.6 83 +8  1004  0.1  730  284           
21 26.07.14 320 (СЗ) 20000 м  в посл. час ливневой дождь  10/10 600 м кучево-дожд. 
[Cb cap]
+7 +5.2 88 +6  1004.2  730  286           
00 27.07.14 310 (СЗ) 4000 м  слаб. ливневой дождь  10/10 600 м кучево-дожд. 
[Cb cap]
+6.5 +5.3 92 +6  1004.6  0.4  730  286           
03 27.07.14 310 (СЗ) 4000 м  слаб. ливневой дождь  10/10 600 м кучево-дожд. 
[Cb cap]
+6.8 +5.8 93 +6  1005.5  0.8  731  286  +6.4      влажная 
06 27.07.14 340 (С) 4000 м  слаб. ливневой дождь  10/10 300 м кучево-дожд. 
[Cb cap]
+8.2 +6.7 90 +7  1006.6  1.2  732  285           
09 27.07.14 360 (С) 10 км  слаб. ливневой дождь  9/9 600 м кучево-дожд. 
[Cb cap]
+10.7 +7.2 79 +10  1007.6  1.4  733  283           
12 27.07.14 330 (СЗ) 20000 м  в посл. час ливневой дождь  9/9 600 м кучево-дожд. 
[Cb cap]
+12.8 +8.8 77 +13  1008  0.6  733  281           
18 27.07.14 310 (СЗ) 20000 м  {ливн. осадки}  9/9 600 м кучево-дожд. 
[Cb cap]
+10.6 +7.7 82 +11  1009.6  0.5  734  283           
21 27.07.14 310 (СЗ) 20000 м    10/0 средняя 
[Ac und]
+10.2 +8 86 +10  1009.4  -0.2  734  284           
00 28.07.14 340 (С) 4000 м  слаб. ливневой дождь  10/10 600 м кучево-дожд. 
[Cb cap]
+9.6 +8 90 +9  1009.7  0.3  734  284           
03 28.07.14 320 (СЗ) 20000 м  {ливн. осадки}  10/10 600 м кучево-дожд. 
[Cb cap]
+10.2 +7.8 85 +10  1009.8  0.1  734  284  +9.5      влажная 
06 28.07.14 330 (СЗ) 10 км  слаб. ливневой дождь  10/10 600 м кучево-дожд. 
[Cb cap]
+10.5 +7.8 83 +10  1010.2  0.5  734  284           
09 28.07.14 330 (СЗ) 20000 м  в посл. час ливневой дождь  10/10 600 м кучево-дожд. 
[Cb cap]
+10.8 +7.6 81 +10  1011.2  735  284           
12 28.07.14 340 (С) 20000 м  {ливн. осадки}  10/10 600 м кучево-дожд. 
[Cb cap]
+12.4 +8 75 +12  1011.8  0.7  736  282           
18 28.07.14 320 (СЗ) 20000 м  {ливн. осадки, дождь}  9/9 600 м 
[Sc]
+11.1 +8 81 +11  1013.7  0.6  737  284           
21 28.07.14 320 (СЗ) 20000 м    8/8 600 м 
[Sc]
+10.5 +7.2 80 +10  1014.4  0.6  737  285           
00 29.07.14 300 (СЗ) 20000 м    9/9 600 м 
[Sc]
+9.4 +6.4 81 +9  1015.2  0.6  738  286           
03 29.07.14 300 (СЗ) 20000 м    8/8 600 м 
[Sc]
+10.6 +6.5 76 +11  1015.4  0.4  738  285  +8.4        влажная 
06 29.07.14 270 (З) 20000 м    9/8 600 м кучево-дожд., средняя 
[Cb cap|Ac trans]
+14.5 +6.9 60 +15  1015.2  0.2  738  281           
09 29.07.14 290 (З) 20000 м    9/9 600 м кучево-дожд. 
[Cb cap]
+15.1 +6.5 56 +15  1014.8  -0.3  738  281           
12 29.07.14 280 (З) 20000 м    8/8 600 м кучево-дожд. 
[Cb cap]
+17.9 +7.6 51 +18  1013.8  -0.7  738  278           
18 29.07.14 100 (В) 20000 м    3/0 средняя 
[Ac trans]
+9.1 +7.9 92 +10  1014.1  0.2  737  286           
21 29.07.14 110 (В) 20000 м    3/0 средняя 
[Ac trans]
+7.1 +6.5 96 +8  1014.2  -0.2  737  288           
00 30.07.14 130 (ЮВ) 20000 м    3/1 600 м средняя 
[Sc|Ac trans]
+8.4 +7.9 97 +9  1013.4  -0.6  737  287           
03 30.07.14 230 (ЮЗ) 20000 м    9/5 600 м средняя 
[Sc|Ac trans]
+14 +11.5 85 +19  1012.4  -0.3  736  280  +7        влажная 
Время (UTC), дата Ветер
(°,м/с) 
Видим.   Явления Облачность Т
(°С)
Тd
(°С)
f(%) Тe
(°С)
Pmin
(гПа)
dP
(гПа)
Po
(мм)
O2
(г/м3)
Тmin Tmax R s Состояние
почвы

Для получения пояснительной информации подведите курсор к названию столбца.

ПОГОДА Нижний Тагил - архив

Всё, что Вы хотите узнать о погоде Нижний Тагил - удобно и подробно!

Выберите нужную дату (начиная с 1 января 2013* года) и нажмите кнопку "Найти".
Будут отображены архивные сводки погоды по пункту Нижний Тагил, начиная с указанной даты.


Отображать данные в формате CSV (для использования в таблицах Excel)


Внимание! Наш архив погоды предназначен исключительно для личного некоммерческого использования в познавательных целях. Если Вам необходимы официальные справки о состоянии погоды (для производственных, юридических, коммерческих и т.п. целей), обращайтесь в органы Росгидромета.

*Примечание: данная дата относится к архиву по метеостанциям СССР (Россия, СНГ, Балтия).
Архив по метеостанциям Зарубежной Европы и Азии (кроме Китая) хранится 10 дней, по другим регионам земного шара (Китай, Африка, Америка, Австралия, Океания) - 1 день.

Нижний Тагил - район местоположения метеостанции


Название, широта, долгота, высота метеостанции:
Нижний Тагил 57.9°ш. 60.1°д. 260 м над ур. моря [Российская Федерация]

Дополнительная информация

В oтличие oт бoльшинства пoгoдных сайтoв мы публикуем пoдрoбную метеoинфoрмацию в детальнoм прoфессиoнальнoм фoрмате.

Характеристики температуры и влажнoсти вoздуха измеряются на высoте 2 м в тени вдали oт зданий и деревьев.
Скoрoсть ветра измеряется на высoте 10 м (на урoвне рoста челoвека скoрoсть ветра ниже в 1.5-2 раза). Если метеoстанция нахoдится в гoрoде или в лесу, тo скoрoсть ветра занижена на 2-4 м/с пo сравнению с oткрытым местoм. Скoрoсть ветра над акватoриями крупных рек и oзёр, а также на вершинах хoлмoв на 2-5 м/с выше, чем в oбычных услoвиях.
Атмoсфернoе давление в разных тoчках местнoсти мoжет значительнo oтличаться oт давления на метеoстанции, в зависимoсти oт услoвий рельефа (при пoдъёме на 10 м давление пoнижается примернo на 1 мм рт.ст.).